TimeEST,TemperatureF,Dew PointF,Humidity,Sea Level PressureIn,VisibilityMPH,Wind Direction,Wind SpeedMPH,Gust SpeedMPH,PrecipitationIn,Events,Conditions,WindDirDegrees,DateUTC
12:44 AM,24.8,19.4,80,30.05,7.0,NNW,11.5,-,N/A,,Overcast,330,2012-12-28 05:44:00
12:53 AM,24.1,19.0,81,30.11,5.0,NNW,10.4,-,N/A,,Haze,330,2012-12-28 05:53:00
1:53 AM,24.1,19.0,81,30.12,7.0,NNW,8.1,-,N/A,,Overcast,330,2012-12-28 06:53:00
2:53 AM,21.9,19.0,89,30.13,4.0,West,6.9,-,N/A,,Overcast,280,2012-12-28 07:53:00
3:01 AM,21.2,17.6,86,30.08,3.0,West,6.9,-,N/A,,Overcast,270,2012-12-28 08:01:00
3:45 AM,19.4,17.6,93,30.08,5.0,West,5.8,-,N/A,,Overcast,260,2012-12-28 08:45:00
3:53 AM,19.0,17.1,92,30.14,6.0,West,5.8,-,N/A,,Overcast,260,2012-12-28 08:53:00
4:15 AM,21.2,17.6,86,30.09,3.0,WSW,8.1,-,N/A,,Overcast,250,2012-12-28 09:15:00
4:53 AM,21.9,19.9,92,30.15,3.0,West,5.8,-,N/A,,Overcast,270,2012-12-28 09:53:00
5:53 AM,24.1,19.9,84,30.16,6.0,WSW,5.8,-,0.00,,Overcast,250,2012-12-28 10:53:00
6:53 AM,24.1,19.9,84,30.16,8.0,WSW,8.1,-,0.00,,Overcast,250,2012-12-28 11:53:00
7:02 AM,23.0,19.4,86,30.11,7.0,WSW,9.2,-,0.00,Snow,Light Snow,250,2012-12-28 12:02:00
7:53 AM,23.0,19.9,88,30.17,7.0,SW,6.9,-,0.00,Snow,Light Snow,230,2012-12-28 12:53:00
8:38 AM,23.0,19.4,86,30.12,3.0,SW,6.9,-,0.00,,Light Freezing Drizzle,230,2012-12-28 13:38:00
8:45 AM,23.0,19.4,86,30.12,2.5,WSW,8.1,-,0.00,,Light Freezing Drizzle,240,2012-12-28 13:45:00
8:53 AM,23.0,19.9,88,30.18,2.5,WSW,6.9,-,0.00,,Light Freezing Drizzle,240,2012-12-28 13:53:00
9:15 AM,23.0,19.4,86,30.12,2.0,WSW,6.9,-,0.00,Snow,Light Freezing Drizzle,240,2012-12-28 14:15:00
9:30 AM,24.8,19.4,80,30.12,2.0,WSW,4.6,-,0.00,Snow,Light Snow,240,2012-12-28 14:30:00
9:53 AM,24.1,21.0,88,30.18,2.0,WSW,4.6,-,0.00,Snow,Light Snow,240,2012-12-28 14:53:00
10:34 AM,24.8,19.4,80,30.12,4.0,SSW,4.6,-,0.00,Snow,Light Snow,210,2012-12-28 15:34:00
10:43 AM,24.8,19.4,80,30.12,7.0,Calm,Calm,-,0.00,,Overcast,0,2012-12-28 15:43:00
10:53 AM,24.1,19.9,84,30.18,7.0,West,4.6,-,0.00,,Overcast,270,2012-12-28 15:53:00
11:37 AM,24.8,19.4,80,30.11,5.0,West,9.2,-,0.00,Snow,Light Snow,270,2012-12-28 16:37:00
11:42 AM,24.8,21.2,86,30.10,5.0,West,8.1,-,0.00,Snow,Light Snow,260,2012-12-28 16:42:00
11:53 AM,24.1,21.0,88,30.15,5.0,West,6.9,-,0.00,Snow,Light Snow,270,2012-12-28 16:53:00
12:23 PM,23.0,19.4,86,30.09,4.0,WSW,11.5,-,0.00,,Overcast,250,2012-12-28 17:23:00
12:53 PM,21.9,19.0,89,30.16,6.0,West,12.7,-,0.00,,Overcast,260,2012-12-28 17:53:00
1:53 PM,24.1,19.0,81,30.17,7.0,West,12.7,-,N/A,,Overcast,260,2012-12-28 18:53:00
2:07 PM,24.8,19.4,80,30.12,7.0,WSW,10.4,-,N/A,,Overcast,250,2012-12-28 19:07:00
2:39 PM,24.8,19.4,80,30.12,7.0,West,8.1,-,N/A,,Overcast,260,2012-12-28 19:39:00
2:53 PM,26.1,19.9,78,30.17,7.0,West,9.2,-,N/A,,Overcast,270,2012-12-28 19:53:00
3:53 PM,28.0,21.0,75,30.15,10.0,WSW,9.2,-,N/A,,Overcast,250,2012-12-28 20:53:00
4:21 PM,28.4,21.2,74,30.07,10.0,SW,3.5,-,N/A,,Overcast,220,2012-12-28 21:21:00
4:53 PM,27.0,21.0,78,30.09,10.0,Calm,Calm,-,N/A,,Mostly Cloudy,0,2012-12-28 21:53:00
5:53 PM,27.0,21.0,78,30.10,10.0,Calm,Calm,-,N/A,,Mostly Cloudy,0,2012-12-28 22:53:00
6:53 PM,24.1,19.0,81,30.11,10.0,Calm,Calm,-,N/A,,Overcast,0,2012-12-28 23:53:00
7:53 PM,21.0,18.0,88,30.12,10.0,Calm,Calm,-,N/A,,Scattered Clouds,0,2012-12-29 00:53:00
8:53 PM,17.1,14.0,88,30.11,10.0,East,3.5,-,N/A,,Scattered Clouds,100,2012-12-29 01:53:00
9:53 PM,16.0,12.9,88,30.09,10.0,East,3.5,-,N/A,,Partly Cloudy,80,2012-12-29 02:53:00
10:23 PM,15.8,12.2,86,30.02,9.0,East,3.5,-,N/A,,Mostly Cloudy,80,2012-12-29 03:23:00
10:53 PM,17.1,14.0,88,30.08,9.0,ENE,4.6,-,N/A,,Mostly Cloudy,70,2012-12-29 03:53:00
11:53 PM,21.0,18.0,88,30.06,5.0,ENE,5.8,-,N/A,,Overcast,70,2012-12-29 04:53:00